Regional Weather Roundup
Issued by NWS Raleigh/Durham, NC

Home | Current Version | Previous Version | Text Only | Print | Product List | Glossary On
Versions: 1 2 3 4 5 6 7 8 9 10 11 12 13 14 15 16 17 18 19 20 21 22 23 24 25 26 27 28 29 30 31 32 33 34 35 36 37 38 39 40 41 42 43 44 45 46 47 48 49 50
000
ASUS42 KRAH 222210
RWRRAH
NORTH CAROLINA WEATHER ROUNDUP
NATIONAL WEATHER SERVICE RALEIGH NC
600 PM EDT WED MAR 22 2017

NOTE: "FAIR" INDICATES FEW OR NO CLOUDS BELOW 12,000 FEET WITH NO
SIGNIFICANT WEATHER AND/OR OBSTRUCTIONS TO VISIBILITY.

NCZ001-053-055-056-065-067-222300-
WESTERN NORTH CAROLINA

CITY           SKY/WX    TMP DP  RH WIND       PRES   REMARKS
ASHEVILLE      CLOUDY    56  16  20 N15       30.21R
JEFFERSON      SUNNY     49  13  23 NW3       30.21R
HICKORY        MOSUNNY   63  22  20 CALM      30.18R
RUTHERFORDTON  CLOUDY    65  14  14 NE7       30.18R
MOUNT AIRY     SUNNY     57   6  12 N10       30.24S
BOONE          SUNNY     51   6  16 NW10      30.21S
$$

NCZ021-022-025-041-071-084-088-222300-
CENTRAL NORTH CAROLINA

CITY           SKY/WX    TMP DP  RH WIND       PRES   REMARKS
CHARLOTTE      CLOUDY    61  17  18 NE10      30.20S
GREENSBORO     PTSUNNY   58  12  16 NE12      30.20R
WINSTON-SALEM  SUNNY     59   8  13 NE10      30.22R
RALEIGH-DURHAM MOSUNNY   58  14  17 NE15G24   30.22R
FORT BRAGG     PTSUNNY   64  28  25 N5        30.17R
FAYETTEVILLE   PTSUNNY   65  34  31 MISG      30.17R
BURLINGTON     SUNNY     60  16  18 N9        30.21R
LAURINBURG     MOSUNNY   64  31  28 NE13      30.19R
$$

NCZ011-015-027-028-043-044-047-080-103-222300-
NORTHEASTERN NORTH CAROLINA

CITY           SKY/WX    TMP DP  RH WIND       PRES   REMARKS
ROCKY MT-WILSO SUNNY     56  19  23 NE13      30.24R
GREENVILLE     SUNNY     55  18  22 N13       30.25R
WASHINGTON     SUNNY     55  20  26 N15       30.23R
ELIZABETH CITY SUNNY     49  25  39 N17       30.27R
MANTEO         SUNNY     47  23  38 N21G28    30.27R
CAPE HATTERAS  SUNNY     48  28  46 N14G26    30.26R
$$

NCZ078-087-090-091-093-098-101-222300-
SOUTHEASTERN NORTH CAROLINA

CITY           SKY/WX    TMP DP  RH WIND       PRES   REMARKS
LUMBERTON      MOSUNNY   64  31  28 N9        30.16R
GOLDSBORO      PTSUNNY   59  11  15 N12       30.20R
KINSTON        PTSUNNY   57  21  24 N16G25    30.23R
KENANSVILLE    MOSUNNY   59  27  29 NE12G21   30.20R
NEW BERN       SUNNY     56  21  25 N13       30.23R
CHERRY POINT   NOT AVBL
BEAUFORT       SUNNY     53  32  44 NE16G24   30.22R
JACKSONVILLE   MOSUNNY   60  31  33 NE15      30.19R
WILMINGTON     CLOUDY    58  46  64 E9G20     30.18R
$$




USA.gov is the U.S. government's official web portal to all federal, state and local government web resources and services.